{"data":{"norad_id":55758,"intl_designator":"2023-028T","name":"STARLINK-5072","alt_names":[],"object_type":"PAYLOAD","status":"ACTIVE","operator":null,"country":"US","launch_date":"2023-03-03","launch_site_code":"AFWTR","launch_vehicle":null,"mission":null,"orbit_class":"UNKNOWN","rcs_meters":null,"size_class":null,"mass_kg":null,"dimensions":null,"purposes":["comms"],"wikipedia_slug":null,"has_3d_model":false,"image_url":null,"decayed_at":null,"tle_current":{"epoch":"2026-09-20T22:00:03.000096Z","epoch_age_seconds":67149,"freshness":"FRESH","line1":"1 55758U 23028T   26263.91670139  .00071632  00000+0  53020-2 0  9990","line2":"2 55758  70.0025 112.0890 0001882 179.2299 293.0791 15.02746364  5762","mean_motion":15.02746364,"eccentricity":0.0001882,"inclination_deg":70.0025,"raan_deg":112.089,"arg_perigee_deg":179.2299,"mean_anomaly_deg":293.0791,"bstar":0.005302,"rev_number":576,"period_min":95.824553929847,"perigee_km":557.12664549648,"apogee_km":559.73757010865,"semimajor_km":6936.5691078026,"source":"CELESTRAK","updated_at":"2026-09-21T09:00:33.314667Z"}}}